Content
SEND FEEDBACK

Daily
Averages
Monthly
Summary
United Kingdom

LONDON, ENGLAND


Home > Europe > United Kingdom > England
Elevation: 203 feet     Latitude: 51 09N     Longitude: 000 11W

WEATHER
 
SELECT A DAY
Number of Records: 292,234;   Date Range: 7/1/96 - 7/8/14
 
SHARE

PRINT THIS DATA

[ ← Previous Day ]
WEATHER ALMANAC - FEBRUARY 21, 2013
[ Next Day → ]
[ °C ]   °F
Weather ElementAverageHighLow
Temperature33.3 °F35.6 °F (10:20 am)30.2 °F (4:20 am)
Dewpoint21 °F24.8 °F (12:50 am)19.4 °F (12:50 pm)
Humidity60.9 %70 % (12:50 am)52 % (12:50 pm)
Barometer30.20 in30.24 in (12:50 am)30.15 in (8:20 pm)
Wind Speed13.3 mph17.3 mph (11:50 am)
Wind Gust28.8 mph (2:50 pm)
Weather ElementAverage
Visibility6.2 mi
Wind DirectionENE (74.5 °)

Weather ElementTotal
Precipitation---
Heating Degree Days32.1 (Base 65)
Averaged from 47 records on February 21, 2013
WEATHER CONDITIONS BREAKOUT
WIND DIRECTION BREAKOUT
WEATHER BY HOUR - FEBRUARY 21, 2013
[ °C ]   °F
Local TimeTemperatureDewpointHumidityBarometerVisibilityWind DirectionWind SpeedGust SpeedPrecipitationEventsConditions
12:50 AM33.8 °F24.8 °F70 %30.24 in6.2 miEast (90°)15.0 mphMostly Cloudy
1:20 AM33.8 °F23.0 °F65 %30.24 in6.2 miEast (90°)15.0 mphMostly Cloudy
1:50 AM33.8 °F23.0 °F65 %30.24 in6.2 miEast (100°)13.8 mphMostly Cloudy
2:20 AM32.0 °F23.0 °F69 %30.24 in6.2 miEast (90°)13.8 mphMostly Cloudy
2:50 AM32.0 °F21.2 °F64 %30.24 in6.2 miEast (90°)13.8 mphMostly Cloudy
3:20 AM32.0 °F21.2 °F64 %30.24 in6.2 miEast (90°)11.5 mphMostly Cloudy
3:50 AM32.0 °F21.2 °F64 %30.24 in6.2 miEast (80°)15.0 mphMostly Cloudy
4:20 AM30.2 °F21.2 °F69 %30.21 in6.2 miEast (80°)11.5 mphPartly Cloudy
4:50 AM30.2 °F21.2 °F69 %30.21 inENE (70°)9.2 mphClear
5:20 AM30.2 °F21.2 °F69 %30.21 in6.2 miEast (80°)10.4 mphMostly Cloudy
5:50 AM32.0 °F21.2 °F64 %30.21 in6.2 miEast (80°)11.5 mphMostly Cloudy
6:20 AM32.0 °F23.0 °F69 %30.21 in6.2 miEast (80°)13.8 mphMostly Cloudy
6:50 AM32.0 °F21.2 °F64 %30.21 in6.2 miEast (80°)13.8 mphMostly Cloudy
7:20 AM32.0 °F21.2 °F64 %30.24 in6.2 miEast (80°)10.4 mphMostly Cloudy
7:50 AM33.8 °F23.0 °F65 %30.24 in6.2 miENE (70°)12.7 mphMostly Cloudy
8:20 AM33.8 °F23.0 °F65 %30.24 in6.2 miEast (80°)10.4 mphMostly Cloudy
8:50 AM33.8 °F23.0 °F65 %30.24 in6.2 miENE (70°)11.5 mphMostly Cloudy
9:20 AM33.8 °F21.2 °F60 %30.24 in6.2 miEast (80°)16.1 mphMostly Cloudy
9:50 AM33.8 °F21.2 °F60 %30.24 in6.2 miENE (70°)13.8 mphMostly Cloudy
10:20 AM35.6 °F23.0 °F60 %30.24 in6.2 miENE (70°)15.0 mphMostly Cloudy
10:50 AM33.8 °F23.0 °F65 %30.24 in6.2 miENE (70°)13.8 mphMostly Cloudy
11:20 AM33.8 °F21.2 °F60 %30.24 in6.2 miENE (70°)16.1 mphMostly Cloudy
11:50 AM33.8 °F21.2 °F60 %30.24 in6.2 miEast (80°)17.3 mphMostly Cloudy
12:20 PM35.6 °F21.2 °F56 %30.21 in6.2 miEast (80°)12.7 mphMostly Cloudy
12:50 PM35.6 °F19.4 °F52 %30.21 in6.2 miENE (70°)17.3 mphMostly Cloudy
1:20 PM33.8 °F19.4 °F56 %30.21 in6.2 miEast (90°)13.8 mphScattered Clouds
1:50 PM35.6 °F21.2 °F56 %30.18 in6.2 miENE (60°)16.1 mphMostly Cloudy
2:20 PM35.6 °F19.4 °F52 %30.18 in6.2 miEast (80°)15.0 mphMostly Cloudy
2:50 PM35.6 °F19.4 °F52 %30.18 in6.2 miEast (80°)15.0 mph28.8 mphMostly Cloudy
3:20 PM35.6 °F19.4 °F52 %30.18 in6.2 miEast (80°)13.8 mphMostly Cloudy
3:50 PM33.8 °F19.4 °F56 %30.18 in6.2 miENE (70°)15.0 mphMostly Cloudy
4:20 PM33.8 °F19.4 °F56 %30.18 in6.2 miENE (70°)16.1 mphMostly Cloudy
4:50 PM33.8 °F19.4 °F56 %30.18 in6.2 miENE (70°)13.8 mphMostly Cloudy
5:20 PM33.8 °F19.4 °F56 %30.18 in6.2 miENE (60°)16.1 mphMostly Cloudy
5:50 PM33.8 °F19.4 °F56 %30.18 in6.2 miEast (80°)15.0 mphMostly Cloudy
6:20 PM33.8 °F19.4 °F56 %30.18 in6.2 miENE (70°)11.5 mphMostly Cloudy
6:50 PM33.8 °F19.4 °F56 %30.18 in6.2 miENE (70°)12.7 mphMostly Cloudy
7:20 PM33.8 °F19.4 °F56 %30.18 in6.2 miENE (70°)12.7 mphMostly Cloudy
7:50 PM33.8 °F19.4 °F56 %30.18 in6.2 miENE (60°)16.1 mphOvercast
8:20 PM33.8 °F19.4 °F56 %30.15 in6.2 miENE (60°)12.7 mphOvercast
8:50 PM33.8 °F19.4 °F56 %30.15 in6.2 miENE (70°)12.7 mphMostly Cloudy
9:20 PM32.0 °F21.2 °F64 %30.15 in6.2 miENE (60°)9.2 mphMostly Cloudy
9:50 PM33.8 °F21.2 °F60 %30.15 in6.2 miENE (60°)12.7 mphMostly Cloudy
10:20 PM32.0 °F21.2 °F64 %30.15 in6.2 miENE (70°)11.5 mphMostly Cloudy
10:50 PM32.0 °F21.2 °F64 %30.15 in6.2 miENE (60°)10.4 mphMostly Cloudy
11:20 PM32.0 °F21.2 °F64 %30.15 in6.2 miENE (60°)8.1 mphMostly Cloudy
11:50 PM32.0 °F21.2 °F64 %30.15 in6.2 miENE (60°)8.1 mphMostly Cloudy
Hourly data recorded from EGKK, located miles away from London, England







STORIES FROM OUR PARTNERS